loading
|

OBJECT C, 60747

Orbit data source: Space-Track

OBJECT C, 60747 is a satellite owned by Yunyao yuhang (CN) in SSO that was launched on Thu, 29 Aug 2024 UTC via a GUSHENXING 1 launch vehicle from the Yellow Sea Launch Area, China (YSLA). Unknown objects in Earth's orbit typically refer to objects detected orbiting the Earth but have not yet been identified or cataloged. These objects could be anything from previously untracked satellites, spent rocket stages, debris from satellite collisions, or even natural meteoroids temporarily captured by Earth's gravity.

Loading next visibility...
Loading greatness...
OBJECT C details
Identifier
60747, 2024-153C
Orbit
SSO
Last TLE update7 hours ago
Origin
Flag of CNYunyao yuhang (CN / PRC)
ManufacturerYunyao yuhang
Mission statusOperational
MissionUnknown
Bus & MotorYY-1, Unknown motor
Mass~50 kg wet, ~50 kg dry
Launch date (UTC)
2024-08-29 (3 weeks ago)
Launch vehicle
GUSHENXING 1
Launch site
Yellow Sea Launch Area, China (YSLA)
Object typeUnknown
Radar Cross SectionMedium (>0.1 m² and <1 m²)

Expand to show TLE details & history

TLE from 7 hours ago
0 OBJECT C
1 60747U 24153C   24261.61810004  .00062118  00000-0  37404-2 0  9992
2 60747  97.6175  19.0386 0016795 220.8189 139.1784 15.10434174  2933
Epoch: 2024-09-17T14:50Z
Definitive object data (Epoch: 2024-09-17T14:50:03.843Z)
Latitude0.00004°
Longitude159.49241°
Altitude546.743 km
Speed7.584 km/s
True Right ascension01h 16m 09s
True Declination0° 00' 00"
Sunlit
Object was in full shadow at TLE epoch
Predictive object data (real-time)
Latitude48.20478°
Longitude-11.66344°
Altitude542.044 km
Speed7.596 km/s
Apparent Right ascension07h 05m 24s
Apparent Declination48° 18' 48"
Sunlit
Object is in daylight
Predictive observer data (real-time)
Local Sidereal Time14:35:17
Azimuth320.133° NNW
Elevation16.513°
Doppler factor1
Orbital elements
Apogee543.468 km
Perigee520.257 km
Semi-major axis6,910 km
Eccentricity0.0016795
Inclination97.6175°
RAAN19.0386°
Arg. of periapsis220.8189°
True anomaly139.30401°
Mean anomaly139.1784°
Eccentric anomaly139.24123°
Mean motion3.77856 °/min
BSTAR0.0037404
Period95.27 mins
No data available

OBJECT C Visibility forecast

Observer location: 39.9160978°, -105.1181434

OBJECT C is not visible in the next 10 days
Span
Click to sort rows by Start time (UTC) header in descending order
Start Az.
Max El. time (UTC)
Max El. Az.
Max El.
End time (UTC)
End Az.